KUZGTU 1 (RS47S)

Last updated on Tue Aug 25 2026 00:03:14 GMT+0000 (Coordinated Universal Time)

1 57217U 23091AV 26236.61450061 .00010637 00000+0 35466-3 0 9992 2 57217 97.5014 301.8388 0009853 204.9141 155.1626 15.31227250174845
UTC large
Height (km)
Speed (km/s)
/
Latitude / Longitude
Inclination (degrees)
Orbital Period (minutes)
Azimuth
Elevation
Range (km)
Doppler Factor

Next 0 passes for location: London (51.5072 / 0.1276)

No passes found over London.
KUZGTU 1 (RS47S)